User: anonymous   Login
Location: downtown San Diego
(32.7310°N, 117.1990°W)
Time: 17:42:00
(UTC-07:00)
Language:

COSMOS 2455 - Orbit

View from above orbital plane
View from above orbital plane
View from above satellite
View from above satellite

Ground track
Ground track

The orbit data is extracted from the following two-line orbital elements,

1 36095U 09063A   19112.44204013 -.00000073  00000-0  16268-5 0  9992
2 36095  67.1459 124.9601 0008869 283.0983  76.9111 13.96754332480420
Epoch (UTC): 22 April 2019 10:36:32
Eccentricity: 0.0008869
inclination: 67.1459°
perigee height: 898 km
apogee height: 911 km
right ascension of ascending node: 124.9601°
argument of perigee: 283.0983°
revolutions per day: 13.96754332
mean anomaly at epoch: 76.9111°
orbit number at epoch: 48042

The dashed part of the orbit path shows where the satellite is in the earth's shadow,  

DLR